sat.trackr.live / text

‹ back to catalog

STARLINK-11477 [DTC]

NORAD 62471 · 2024-254K

PAYLOAD ACTIVE UNKNOWN

§ Identity

Operator
Country
US
Launch date
2024-12-31
Launch site
AFETR
Launch vehicle
Mass (kg)
RCS (m²)

Purposes: comms

External: N2YO · Heavens-Above · Gunter

§ Orbital elements

Epoch: 2026-05-24T23:45:44.646912Z

Period
91.67 min
Inclination
42.9985°
Eccentricity
0.0001893
Mean motion
15.70840111 rev/d
Perigee alt
355.2 km
Apogee alt
357.8 km
Semi-major
6,734.6 km
B*
1.5106e-3
RAAN
122.8537°
Arg perigee
256.4165°
Mean anomaly
103.6491°
Rev number
8,139

§ Raw data

STARLINK-11477 [DTC]1 62471U 24254K   26144.99010008  .00198080  00000+0  15106-2 0  99912 62471  42.9985 122.8537 0001893 256.4165 103.6491 15.70840111 81390

JSON: /api/v1/satellites/62471 · /tle

For live sub-satellite position, see the globe view (requires WebGL).

§ Visibility from observer

Set your observer location to see the next 7 days of passes ≥ 10°. The values pass through the URL so the page stays shareable.

No JS? Fill the form by hand. The geolocation button needs JavaScript.